(509901) = 2005 GB214 = 2009 DK = 2014 HM25

Discovered at Mount Lemmon on 2005-03-10 by Mt. Lemmon Survey.

Orbit

Orbit type: Main Belt

Note: WebGL enabled browser required.

epoch2023-02-25.0
epoch JD2460000.5
perihelion date2019-01-23.00154
perihelion JD2458506.50154
argument of perihelion (°)45.08867
ascending node (°)199.58723
inclination (°)3.83011
eccentricity0.1195993
perihelion distance (AU)2.3804569
Tisserand w.r.t. Jupiter3.4
ΔV w.r.t. Earth (km/sec)9.7
semimajor axis (AU)2.7038333
mean anomaly (°)331.19526
mean daily motion (°/day)0.22168380
aphelion distance (AU)3.027
period (years)4.45
P-vector [x]-0.42826847
P-vector [y]-0.84676470
P-vector [z]-0.31555613
Q-vector [x]0.90337403
Q-vector [y]-0.40983841
Q-vector [z]-0.12628473
absolute magnitude17.63
phase slope0.15
uncertainty0
referenceMPO 745323
observations used122
oppositions8
arc length (days)7560
first opposition used2002
last opposition used2023
residual rms (arc-secs)0.68
perturbers coarse indicatorM-v
perturbers precise indicator003Ek
first observation date used2002-10-10.0
last observation date used2023-06-22.0
computer nameMPCLINUX
JD of orbit computation2458139.355829
perihelion JD uncertainty (days)1.3676E-04
argument of perihelion uncertainty (°)6.7017E-05
ascending node uncertainty (°)5.7124E-05
inclination uncertainty (°)8.8668E-06
eccentricity uncertainty 6.5648E-08
perihelion distance uncertainty (AU)1.7931E-07
Minimum Orbit Intersection Distances (in AU)
for orbit epoch: 2460000.5, reference: E2023-MB3
Mercury1.91803
Venus1.65586
Earth1.36925
Mars0.82551
Jupiter1.97962
Saturn6.05468
Uranus15.7649
Neptune26.8708

Observations

124 total observations over interval: 2002 10 10.35767 – 2023 06 22.315795
These data are available for download (format description).

